Waarnemingen

Advertentie
Mijn weer
AWG, Nederland (6208): temperatuur & dauwpunt: 20.03.2017 00:00:00 - 26.03.2017 00:00:00 (CET)AWG, Nederland (6208): windsnelheid & windstoten: 20.03.2017 00:00:00 - 26.03.2017 00:00:00 (CET)AWG, Nederland (6208): windrichting: 20.03.2017 00:00:00 - 26.03.2017 00:00:00 (CET)AWG, Nederland (6208): luchtdruk: 20.03.2017 00:00:00 - 26.03.2017 00:00:00 (CET)AWG, Nederland (6208): zicht: 20.03.2017 00:00:00 - 26.03.2017 00:00:00 (CET)
Datum & Tijd tt [°C] td [°C] ff [km/u] ff [kn] fx [km/u] fx [kn] dd ppp [hPa] vv [km]
26.03.2017 00:00:00 6,9 5,4 22 12 25 14 N 1028,3 10
25.03.2017 23:00:00 6,8 5,4 16 9 22 12 NNO 1028,9 10
25.03.2017 22:00:00 7,0 5,1 16 9 18 10 NNO 1029,6 10
25.03.2017 21:00:00 6,9 4,9 13 7 18 10 NNO 1029,4 10
25.03.2017 20:00:00 6,9 4,7 15 8 18 10 NNO 1029,2 10
25.03.2017 19:00:00 6,8 4,4 15 8 18 10 NNO 1029,2 10
25.03.2017 18:00:00 6,8 4,1 15 8 18 10 NNO 1029,3 10
25.03.2017 17:00:00 6,9 3,2 16 9 18 10 NNO 1029,7 10
25.03.2017 16:00:00 7,0 2,2 15 8 18 10 NNO 1030,4 10
25.03.2017 15:00:00 7,1 1,1 21 11 22 12 N 1031,4 10
25.03.2017 14:00:00 7,1 1,9 18 10 18 10 N 1032,1 10
25.03.2017 13:00:00 6,9 0,8 16 9 18 10 N 1032,9 10
25.03.2017 12:00:00 6,8 2,6 13 7 14 8 N 1033,6 10
25.03.2017 11:00:00 6,6 2,8 11 6 11 6 N 1033,8 10
25.03.2017 10:00:00 6,5 3,2 13 7 14 8 N 1034,0 10
25.03.2017 09:00:00 6,3 2,5 13 7 18 10 NNO 1033,9 10
25.03.2017 08:00:00 6,2 3,0 15 8 18 10 NNO 1033,6 10
25.03.2017 07:00:00 6,2 2,4 16 9 18 10 NNO 1033,6 10
25.03.2017 06:00:00 6,3 1,7 11 6 14 8 - 1033,5 10
25.03.2017 05:00:00 6,3 1,1 13 7 14 8 NNO 1033,7 10
25.03.2017 04:00:00 6,3 1,2 15 8 14 8 NNO 1034,0 10
25.03.2017 03:00:00 6,3 1,8 8 4 11 6 NNO 1034,3 10
25.03.2017 02:00:00 6,3 2,1 9 5 11 6 NNO 1034,8 10
25.03.2017 01:00:00 6,6 1,7 9 5 14 8 NO 1035,1 10
25.03.2017 00:00:00 6,6 2,6 11 6 18 10 - 1034,9 10
24.03.2017 23:00:00 6,7 3,2 16 9 18 10 NO 1035,0 10
24.03.2017 22:00:00 6,9 3,5 16 9 18 10 NO 1035,0 10
24.03.2017 21:00:00 7,1 3,5 18 10 22 12 NO 1034,8 10
24.03.2017 20:00:00 7,0 3,2 24 13 25 14 NO 1034,3 10
24.03.2017 19:00:00 7,1 3,3 28 15 29 16 NNO 1033,1 10
24.03.2017 18:00:00 7,2 3,3 29 16 29 16 NNO 1032,6 10
24.03.2017 17:00:00 7,2 3,3 28 15 29 16 NNO 1032,9 10
24.03.2017 16:00:00 7,2 3,6 24 13 25 14 NNO 1033,4 10
24.03.2017 15:00:00 7,2 4,0 24 13 22 12 NNO 1033,7 10
24.03.2017 14:00:00 7,2 4,2 18 10 18 10 NO 1033,4 10
24.03.2017 13:00:00 7,4 3,9 18 10 22 12 ONO 1033,7 10
24.03.2017 12:00:00 7,4 3,5 18 10 22 12 ONO 1033,3 10
24.03.2017 11:00:00 7,5 3,2 16 9 25 14 - 1033,0 10
24.03.2017 10:00:00 7,4 3,7 21 11 25 14 - 1032,2 10
24.03.2017 09:00:00 7,1 3,8 18 10 25 14 - 1031,6 10
24.03.2017 08:00:00 7,0 3,7 22 12 29 16 O 1031,1 10
24.03.2017 07:00:00 6,8 2,4 21 11 25 14 - 1030,5 10
24.03.2017 06:00:00 6,7 2,2 21 11 25 14 O 1030,2 10
24.03.2017 05:00:00 6,7 2,9 22 12 29 16 O 1029,2 10
24.03.2017 04:00:00 7,3 3,0 24 13 29 16 O 1028,7 10
24.03.2017 03:00:00 7,4 3,1 24 13 29 16 O 1028,3 10
24.03.2017 02:00:00 7,6 3,1 24 13 29 16 ONO 1028,0 10
24.03.2017 01:00:00 7,8 2,6 26 14 29 16 O 1027,2 10
24.03.2017 00:00:00 7,7 3,1 26 14 32 18 O 1026,6 10
23.03.2017 23:00:00 7,8 3,2 28 15 32 18 O 1026,3 10
23.03.2017 22:00:00 8,0 3,7 34 18 36 19 ONO 1025,5 10
23.03.2017 21:00:00 7,5 4,2 34 18 32 18 NO 1025,1 10
23.03.2017 20:00:00 7,5 3,5 35 19 36 19 NO 1024,2 10
23.03.2017 19:00:00 7,5 3,5 34 18 32 18 NO 1023,1 10
23.03.2017 18:00:00 7,6 3,6 34 18 36 19 ONO 1022,3 10
23.03.2017 17:00:00 8,3 2,9 37 20 40 21 ONO 1021,4 10
23.03.2017 16:00:00 8,5 2,9 39 21 40 21 ONO 1020,9 10
23.03.2017 15:00:00 8,0 3,4 39 21 40 21 ONO 1020,6 10
23.03.2017 14:00:00 7,6 3,6 39 21 40 21 ONO 1020,7 10
23.03.2017 13:00:00 7,5 3,4 37 20 36 19 ONO 1020,7 10
23.03.2017 12:00:00 7,4 3,1 31 17 32 18 ONO 1020,6 10
23.03.2017 11:00:00 7,5 3,3 29 16 36 19 O 1020,1 10
23.03.2017 10:00:00 7,4 3,9 28 15 36 19 O 1019,8 10
23.03.2017 09:00:00 7,3 2,2 28 15 32 18 - 1019,5 10
23.03.2017 08:00:00 7,0 2,2 24 13 29 16 - 1019,1 10
23.03.2017 07:00:00 6,9 2,2 24 13 29 16 O 1018,3 10
23.03.2017 06:00:00 6,9 2,2 21 11 29 16 O 1017,9 10
23.03.2017 05:00:00 6,9 1,5 22 12 25 14 OZO 1017,5 10
23.03.2017 04:00:00 7,0 1,7 26 14 32 18 OZO 1017,1 10
23.03.2017 03:00:00 7,2 1,2 31 17 32 18 O 1016,8 10
23.03.2017 02:00:00 7,7 0,1 28 15 29 16 OZO 1016,5 10
23.03.2017 01:00:00 8,2 0,7 28 15 32 18 OZO 1016,7 10
23.03.2017 00:00:00 8,8 0,6 31 17 32 18 O 1016,6 10
22.03.2017 23:00:00 8,6 2,2 28 15 32 18 OZO 1016,7 10
22.03.2017 22:00:00 8,9 2,7 26 14 32 18 O 1016,4 10
22.03.2017 21:00:00 8,9 2,6 29 16 29 16 OZO 1015,8 10
22.03.2017 20:00:00 8,5 4,1 26 14 32 18 O 1015,4 10
22.03.2017 19:00:00 8,6 4,0 26 14 29 16 O 1015,2 10
22.03.2017 18:00:00 10,9 1,1 26 14 29 16 O 1014,6 10
22.03.2017 17:00:00 8,7 3,7 22 12 29 16 - 1014,2 10
22.03.2017 16:00:00 8,5 2,4 22 12 25 14 ONO 1014,4 10
22.03.2017 15:00:00 8,9 0,7 11 6 14 8 ONO 1014,7 23
22.03.2017 14:00:00 9,8 -2,0 13 7 18 10 ZZO 1014,9 10
22.03.2017 13:00:00 9,7 -0,2 22 12 29 16 ZZW 1015,0 10
22.03.2017 12:00:00 9,1 -0,4 28 15 40 21 ZZW 1014,8 10
22.03.2017 11:00:00 8,0 0,1 35 19 40 21 ZZW 1014,5 10
22.03.2017 10:00:00 6,7 1,8 26 14 32 18 ZZW 1014,4 10
22.03.2017 09:00:00 4,8 1,5 31 17 32 18 Z 1013,8 10
22.03.2017 08:00:00 3,7 1,0 29 16 36 19 Z 1013,1 10
22.03.2017 07:00:00 4,1 1,7 37 20 40 21 ZZW 1012,6 10
22.03.2017 06:00:00 4,1 1,9 35 19 36 19 ZZW 1012,4 10
22.03.2017 05:00:00 4,8 2,7 35 19 40 21 ZZW 1012,1 10
22.03.2017 04:00:00 5,3 3,2 35 19 40 21 ZZW 1011,7 10
22.03.2017 03:00:00 5,6 3,4 34 18 36 19 ZZW 1011,6 10
22.03.2017 02:00:00 6,0 3,5 31 17 36 19 - 1011,5 10
22.03.2017 01:00:00 6,5 3,3 29 16 36 19 ZZW 1011,4 10
22.03.2017 00:00:00 6,2 2,7 37 20 40 21 - 1011,3 10
21.03.2017 23:00:00 6,1 2,9 31 17 43 23 ZZW 1011,1 10
21.03.2017 22:00:00 6,3 2,0 35 19 40 21 - 1010,7 10
21.03.2017 21:00:00 6,7 1,7 29 16 36 19 - 1010,4 10
21.03.2017 20:00:00 7,2 1,7 31 17 32 18 ZW 1010,3 10
21.03.2017 19:00:00 7,3 0,4 31 17 36 19 WZW 1009,7 10
21.03.2017 18:00:00 7,2 -0,5 35 19 40 21 W 1009,2 10
21.03.2017 17:00:00 6,9 -0,8 41 22 43 23 W 1008,7 10
21.03.2017 16:00:00 6,7 -0,4 42 23 43 23 W 1008,2 10
21.03.2017 15:00:00 6,6 -0,4 44 24 43 23 W 1007,5 10
21.03.2017 14:00:00 6,4 0,0 42 23 47 25 W 1007,2 10
21.03.2017 13:00:00 6,5 1,0 48 26 47 25 W 1006,4 10
21.03.2017 12:00:00 6,6 0,4 48 26 47 25 W 1005,7 10
21.03.2017 11:00:00 6,9 1,9 42 23 47 25 W 1004,7 10
21.03.2017 10:00:00 7,2 2,6 44 24 43 23 W 1004,1 10
21.03.2017 09:00:00 7,3 3,8 37 20 40 21 W 1003,3 10
21.03.2017 08:00:00 7,7 4,1 39 21 43 23 WZW 1002,6 10
21.03.2017 07:00:00 7,7 5,4 35 19 40 21 WZW 1002,3 10
21.03.2017 06:00:00 7,6 5,7 26 14 29 16 ZW 1002,3 10
21.03.2017 05:00:00 7,9 6,0 29 16 29 16 ZW 1002,3 10
21.03.2017 04:00:00 7,9 5,6 26 14 29 16 ZW 1002,1 10
21.03.2017 03:00:00 7,9 6,4 28 15 29 16 WZW 1002,1 10
21.03.2017 02:00:00 7,8 5,9 28 15 32 18 WZW 1002,2 10
21.03.2017 01:00:00 8,0 5,9 35 19 36 19 W 1002,1 10
21.03.2017 00:00:00 7,9 5,7 35 19 40 21 W 1001,7 10
20.03.2017 23:00:00 7,9 6,1 31 17 32 18 W 1001,6 10
20.03.2017 22:00:00 8,1 6,9 29 16 32 18 WZW 1000,9 10
20.03.2017 21:00:00 8,0 6,7 28 15 29 16 WZW 1000,6 10
20.03.2017 20:00:00 7,9 6,7 34 18 47 25 W 1000,2 10
20.03.2017 19:00:00 8,6 7,0 63 34 72 39 WZW 999,3 5
20.03.2017 18:00:00 10,0 7,8 61 33 68 37 ZW 998,4 8
20.03.2017 17:00:00 9,9 8,4 55 30 61 33 ZZW 998,4 10
20.03.2017 16:00:00 9,8 8,7 46 25 54 29 ZZW 999,3 5
20.03.2017 15:00:00 9,9 8,7 46 25 50 27 ZW 1000,1 10
20.03.2017 14:00:00 9,3 8,7 46 25 47 25 ZW 1000,8 9
20.03.2017 13:00:00 9,5 8,9 39 21 43 23 ZW 1001,7 4,4
20.03.2017 12:00:00 10,0 9,1 41 22 43 23 ZW 1002,0 10
20.03.2017 11:00:00 9,4 8,7 39 21 40 21 ZW 1002,7 10
20.03.2017 10:00:00 9,2 8,6 39 21 40 21 ZW 1002,8 6
20.03.2017 09:00:00 9,1 8,6 37 20 36 19 ZW 1003,0 6
20.03.2017 08:00:00 8,8 8,5 35 19 36 19 ZW 1003,2 3,7
20.03.2017 07:00:00 8,7 8,3 29 16 29 16 ZW 1003,2 6
20.03.2017 06:00:00 8,9 8,1 26 14 29 16 WZW 1003,2 9
20.03.2017 05:00:00 8,9 8,0 26 14 29 16 WZW 1003,4 10
20.03.2017 04:00:00 9,1 8,0 28 15 36 19 WZW 1003,4 9
20.03.2017 03:00:00 8,8 7,9 35 19 40 21 W 1003,3 7
20.03.2017 02:00:00 9,4 8,6 37 20 43 23 W 1003,5 9
20.03.2017 01:00:00 9,5 8,4 35 19 40 21 W 1003,8 10
20.03.2017 00:00:00 9,7 8,2 39 21 40 21 W 1003,7 10

tt = temperatuur
td = dauwpunt
ff = windsnelheid
fx = windstoten
dd = windrichting
ppp = luchtdruk
vv = zicht

Weerstations in de omgeving